Location: Manchester NH
(43.0000°N, 71.5000°W)
Time: 18:41:17
(UTC-05:00)

Amateur Radio Satellites - All Passes

Search period start: 15 December 2017 18:11
Search period end: 16 December 2017 18:11
Location: Manchester NH, 43.0000°N, 71.5000°W

Satellite Date Start Highest point End Downlink Frequencies (MHz)
Time Altitude Azimuth
PCSat 15 Dec 18:15:26 18:20:50 80° 119° (ESE) 18:26:17 145.827
XW-2F 15 Dec 18:16:42 18:18:35 13° 269° (W) 18:20:30 145.980 - 146.000
BEESAT 3 15 Dec 18:17:13 18:17:59 10° 108° (ESE) 18:18:45 437.485
STARS 15 Dec 18:18:00 18:22:14 50° 288° (WNW) 18:26:27 437.465
O/OREOS (USA 219) 15 Dec 18:25:25 18:29:26 32° 255° (WSW) 18:33:25 437.305
UWE-3 15 Dec 18:47:26 18:51:35 77° 258° (WSW) 18:55:45 435.000/436.395/437.385
CUBEBUG 2 15 Dec 18:50:26 18:54:22 38° 262° (W) 18:58:16 437.445
HO-68 15 Dec 18:55:07 19:01:38 37° 263° (W) 19:08:12 435.675
SEEDS 15 Dec 19:02:09 19:05:50 29° 265° (W) 19:09:33 437.485
RS-15 15 Dec 19:08:42 19:18:16 25° 2° (N) 19:27:31 29.354- 29.394
ZACube-1 15 Dec 19:09:56 19:14:04 84° 257° (WSW) 19:18:15 437.345
AAUSAT CUBESAT 2 15 Dec 19:17:11 19:21:11 44° 261° (W) 19:25:13 437.432
Oscar 11 15 Dec 19:27:23 19:31:42 87° 77° (ENE) 19:36:04 .
FO-29 15 Dec 19:28:03 19:34:08 33° 92° (E) 19:39:33 435.910
XW-2A 15 Dec 19:39:27 19:41:49 18° 266° (W) 19:44:13 145.665 - 145.685
AO-73 15 Dec 19:43:33 19:47:25 39° 262° (W) 19:51:19 145.935
STRAND 1 15 Dec 19:47:21 19:52:23 61° 287° (WNW) 19:57:22 437.568
BEESAT 3 15 Dec 19:50:55 19:54:54 74° 305° (NW) 19:58:55 437.485
PCSat 15 Dec 20:00:58 20:04:53 20° 318° (NW) 20:08:48 145.827
Max Valier Satellite 15 Dec 20:04:35 20:07:42 27° 70° (ENE) 20:10:50 145.860
DELFI C3 15 Dec 20:08:12 20:12:02 47° 73° (ENE) 20:15:53 145.870
TIGRISAT 15 Dec 20:24:30 20:26:02 12° 90° (E) 20:27:35 435.000
UNISAT 6 15 Dec 20:27:24 20:29:44 14° 91° (E) 20:32:05 437.425
EO-88 15 Dec 20:29:31 20:32:53 37° 72° (ENE) 20:36:17 145.990 - 145.960
BEESAT 2 15 Dec 20:33:36 20:37:37 87° 124° (SE) 20:41:42 435.950
LO-87 15 Dec 20:59:13 20:59:54 10° 64° (ENE) 21:00:35 145.935 - 145.965
FALCONSAT 3 15 Dec 21:01:00 21:02:19 12° 158° (SSE) 21:03:37 435.103
AO-85 15 Dec 21:10:03 21:13:49 50° 118° (ESE) 21:17:47 145.980
FO-29 15 Dec 21:12:50 21:19:20 44° 294° (WNW) 21:25:07 435.910
RS-15 15 Dec 21:23:57 21:35:09 42° 36° (NE) 21:45:44 29.354- 29.394
BEESAT 3 15 Dec 21:31:44 21:33:08 11° 324° (NW) 21:34:32 437.485
Max Valier Satellite 15 Dec 21:38:47 21:41:30 20° 266° (W) 21:44:15 145.860
DELFI C3 15 Dec 21:44:56 21:47:01 14° 269° (W) 21:49:06 145.870
ESTCUBE 1 15 Dec 21:45:17 21:49:21 34° 69° (ENE) 21:53:26 437.505/2401.250
TIGRISAT 15 Dec 21:58:48 22:03:08 67° 285° (WNW) 22:07:31 435.000
UNISAT 6 15 Dec 22:02:29 22:06:45 55° 287° (WNW) 22:11:06 437.425
EO-88 15 Dec 22:04:37 22:06:40 14° 268° (W) 22:08:45 145.990 - 145.960
SPROUT 15 Dec 22:10:01 22:12:26 15° 63° (ENE) 22:14:51 437.525
BEESAT 2 15 Dec 22:13:48 22:15:55 14° 322° (NW) 22:18:04 435.950
PRISM 15 Dec 22:18:38 22:22:43 62° 101° (E) 22:26:44 437.425
LO-87 15 Dec 22:29:21 22:32:49 53° 260° (W) 22:36:18 145.935 - 145.965
FALCONSAT 3 15 Dec 22:37:45 22:40:42 23° 172° (S) 22:43:40 435.103
SO-50 15 Dec 22:47:14 22:51:34 37° 48° (NE) 22:55:57 436.795
POLYITAN 1 15 Dec 22:48:54 22:51:38 17° 92° (E) 22:54:22 437.675
AO-85 15 Dec 22:51:34 22:54:31 19° 319° (NW) 22:57:36 145.980
AIST 2D 15 Dec 22:55:48 22:59:21 66° 101° (E) 23:02:52 435.315
VELOX 1 15 Dec 23:13:00 23:17:13 42° 70° (ENE) 23:21:25 145.980
QB50P2 15 Dec 23:13:50 23:17:43 34° 98° (E) 23:21:35 145.880/145.840
DUCHIFAT 1 15 Dec 23:17:06 23:20:37 25° 95° (E) 23:24:06 145.980
ESTCUBE 1 15 Dec 23:22:30 23:26:10 24° 266° (W) 23:29:53 437.505/2401.250
RS-15 15 Dec 23:36:51 23:48:34 73° 243° (WSW) 23:59:38 29.354- 29.394
SPROUT 15 Dec 23:43:43 23:47:52 53° 260° (W) 23:52:02 437.525
NANOSAT C BR1 15 Dec 23:43:50 23:48:00 59° 101° (E) 23:52:09 145.865
UKube-1 15 Dec 23:48:07 23:50:31 15° 62° (ENE) 23:52:54 .
BUGSAT 1 15 Dec 23:53:23 23:55:40 15° 92° (E) 23:57:57 437.445
PRISM 15 Dec 23:55:41 23:57:27 13° 298° (WNW) 23:59:13 437.425
EO-79 16 Dec 00:00:03 00:04:16 80° 286° (WNW) 00:08:29 145.935-145.965
DX 1 16 Dec 00:04:50 00:08:46 34° 69° (ENE) 00:12:43 434.975-435.025
Oscar 19 16 Dec 00:10:13 00:13:19 16° 90° (E) 00:16:23 437.125/150
FALCONSAT 3 16 Dec 00:16:17 00:19:15 23° 188° (S) 00:22:11 435.103
POLYITAN 1 16 Dec 00:23:36 00:27:37 44° 288° (WNW) 00:31:38 437.675
SO-50 16 Dec 00:27:52 00:31:56 30° 245° (WSW) 00:36:01 436.795
AO-91 16 Dec 00:39:42 00:42:17 20° 94° (E) 00:44:49 145.960
50 SAT 16 Dec 00:46:53 00:50:03 73° 258° (WSW) 00:53:13 437.505
ITUPSAT 1 16 Dec 00:49:33 00:50:53 11° 58° (ENE) 00:52:14 437.325
QB50P2 16 Dec 00:50:03 00:53:17 22° 294° (WNW) 00:56:31 145.880/145.840
VELOX 1 16 Dec 00:50:40 00:53:49 19° 267° (W) 00:57:00 145.980
DUCHIFAT 1 16 Dec 00:52:38 00:56:13 28° 292° (WNW) 00:59:49 145.980
Gurwin Techsat 1B 16 Dec 01:01:32 01:06:22 34° 97° (E) 01:11:10 435.225
YUBILEINY 16 Dec 01:20:11 01:27:08 27° 81° (E) 01:34:06 435.215
PCSat 16 Dec 01:20:15 01:23:32 16° 38° (NE) 01:26:48 145.827
NANOSAT C BR1 16 Dec 01:21:06 01:23:13 14° 297° (WNW) 01:25:19 145.865
MOZHAYETS 4 16 Dec 01:21:33 01:25:30 30° 68° (ENE) 01:29:27
UKube-1 16 Dec 01:21:47 01:26:02 58° 259° (W) 01:30:19 .
BUGSAT 1 16 Dec 01:27:22 01:31:15 46° 288° (WNW) 01:35:08 437.445
DX 1 16 Dec 01:41:29 01:44:59 23° 265° (W) 01:48:30 434.975-435.025
AO-7 16 Dec 01:44:30 01:49:26 17° 89° (E) 01:54:19 .
Oscar 19 16 Dec 01:47:55 01:53:05 67° 287° (WNW) 01:58:14 437.125/150
RS-15 16 Dec 01:52:24 01:58:37 16° 265° (W) 02:04:42 29.354- 29.394
BEESAT 16 Dec 01:54:08 01:58:39 46° 70° (ENE) 02:03:12 436.000
FALCONSAT 3 16 Dec 01:56:23 01:57:38 11° 203° (SSW) 01:58:53 435.103
AO-91 16 Dec 02:16:04 02:18:45 21° 292° (WNW) 02:21:23 145.960
M-CUBED/EXP-1 PRIME 16 Dec 02:21:35 02:23:17 12° 93° (E) 02:24:57 437.505
ITUPSAT 1 16 Dec 02:23:11 02:27:57 87° 72° (ENE) 02:32:44 437.325
BEESAT 3 16 Dec 02:30:45 02:32:23 12° 37° (NE) 02:34:00 437.485
Gurwin Techsat 1B 16 Dec 02:41:33 02:46:14 32° 294° (WNW) 02:50:53 435.225
CUBESAT XI-V 16 Dec 02:47:56 02:52:28 55° 73° (ENE) 02:57:05 437.345
MOZHAYETS 4 16 Dec 02:58:41 03:02:35 28° 265° (W) 03:06:33
KKS-1 16 Dec 03:01:52 03:04:41 17° 63° (ENE) 03:07:31 437.445
PCSat 16 Dec 03:02:24 03:07:51 77° 58° (ENE) 03:13:16 145.827
ITAMSAT 1 16 Dec 03:03:20 03:08:06 36° 97° (E) 03:12:49 435.822/435.867
YUBILEINY 16 Dec 03:14:22 03:23:09 68° 281° (WNW) 03:31:59 435.215
BEESAT 2 16 Dec 03:14:39 03:15:46 11° 35° (NE) 03:16:53 435.950
BEESAT 16 Dec 03:33:12 03:36:38 20° 267° (W) 03:40:05 436.000
AO-7 16 Dec 03:34:56 03:43:22 82° 108° (ESE) 03:51:45 .
DOVE 4 16 Dec 03:36:13 03:38:26 14° 89° (E) 03:40:36 437.250
STARS 16 Dec 03:40:33 03:43:20 17° 63° (ENE) 03:46:07 437.465
M-CUBED/EXP-1 PRIME 16 Dec 03:53:40 03:58:11 69° 291° (WNW) 04:02:22 437.505
AO-85 16 Dec 04:00:30 04:02:39 13° 35° (NE) 04:04:51 145.980
BEESAT 3 16 Dec 04:06:36 04:10:33 83° 57° (ENE) 04:14:25 437.485
CUBESAT XI-V 16 Dec 04:27:21 04:30:10 16° 269° (W) 04:33:02 437.345
KKS-1 16 Dec 04:36:27 04:40:49 53° 259° (W) 04:45:12 437.445
CUTE-I 16 Dec 04:42:27 04:44:06 11° 88° (E) 04:45:45 437.470
ITAMSAT 1 16 Dec 04:42:58 04:47:26 30° 295° (WNW) 04:51:52 435.822/435.867
PCSat 16 Dec 04:47:30 04:50:33 15° 256° (WSW) 04:53:37 145.827
BEESAT 2 16 Dec 04:50:15 04:54:17 67° 55° (NE) 04:58:14 435.950
NO-84 16 Dec 05:04:35 05:06:46 19° 128° (SE) 05:09:05 435.350 FM
LilacSat-2 16 Dec 05:07:04 05:10:12 23° 94° (E) 05:13:19 437.200
DOVE 4 16 Dec 05:12:11 05:16:34 55° 287° (WNW) 05:20:44 437.250
STARS 16 Dec 05:14:59 05:19:16 51° 260° (W) 05:23:33 437.465
NUDT-PHONESAT 16 Dec 05:17:00 05:19:39 18° 93° (E) 05:22:18 437.300
YUBILEINY 16 Dec 05:17:22 05:21:53 15° 304° (NW) 05:26:25 435.215
XW-2D 16 Dec 05:18:59 05:22:25 30° 96° (E) 05:25:48 145.860 - 145.880
KAITUO 1B 16 Dec 05:23:18 05:26:22 23° 95° (E) 05:29:25 145.475/437.950
STRAND 1 16 Dec 05:25:56 05:30:12 27° 65° (ENE) 05:34:28 437.568
AO-7 16 Dec 05:28:46 05:35:15 26° 308° (NW) 05:41:44 .
XW-2B 16 Dec 05:34:43 05:38:26 44° 99° (E) 05:42:06 145.730 - 145.750
CUTE 1.7 + AOD 2 16 Dec 05:36:35 05:38:27 13° 89° (E) 05:40:19 437.475
AO-85 16 Dec 05:39:12 05:43:56 61° 54° (NE) 05:49:00 145.980
FO-29 16 Dec 05:40:39 05:46:19 22° 57° (ENE) 05:51:56 435.910
XW-2F 16 Dec 05:45:18 05:49:05 56° 100° (E) 05:52:51 145.980 - 146.000
XW-2C 16 Dec 06:02:08 06:06:00 81° 284° (WNW) 06:09:50 145.795 - 145.815
CUTE-I 16 Dec 06:19:29 06:24:52 90° 256° (WSW) 06:30:10 437.470
HO-68 16 Dec 06:20:57 06:27:44 43° 99° (E) 06:34:27 435.675
BEESAT 2 16 Dec 06:30:03 06:31:24 12° 252° (WSW) 06:32:46 435.950
UWE-3 16 Dec 06:36:16 06:39:28 20° 93° (E) 06:42:42 435.000/436.395/437.385
CUBEBUG 2 16 Dec 06:39:29 06:43:28 36° 98° (E) 06:47:32 437.445
NO-84 16 Dec 06:40:53 06:43:45 38° 328° (NNW) 06:46:51 435.350 FM
LilacSat-2 16 Dec 06:41:08 06:44:26 26° 291° (WNW) 06:47:41 437.200
SEEDS 16 Dec 06:44:14 06:48:17 41° 98° (E) 06:52:17 437.485
NUDT-PHONESAT 16 Dec 06:50:12 06:53:33 31° 289° (WNW) 06:56:52 437.300
XW-2D 16 Dec 06:53:30 06:56:23 20° 293° (WNW) 06:59:16 145.860 - 145.880
KAITUO 1B 16 Dec 06:57:08 07:00:16 25° 291° (WNW) 07:03:25 145.475/437.950
ZACube-1 16 Dec 06:57:42 07:00:43 18° 92° (E) 07:03:45 437.345
AAUSAT CUBESAT 2 16 Dec 06:58:23 07:01:52 25° 95° (E) 07:05:19 437.432
XW-2A 16 Dec 06:59:04 07:01:50 22° 95° (E) 07:04:36 145.665 - 145.685
O/OREOS (USA 219) 16 Dec 06:59:39 07:03:21 25° 103° (ESE) 07:07:04 437.305
STRAND 1 16 Dec 07:04:27 07:09:11 38° 262° (W) 07:13:58 437.568
XW-2B 16 Dec 07:10:03 07:12:13 15° 295° (WNW) 07:14:24 145.730 - 145.750
CUTE 1.7 + AOD 2 16 Dec 07:10:25 07:14:39 60° 286° (WNW) 07:18:51 437.475
Oscar 11 16 Dec 07:14:51 07:17:26 15° 91° (E) 07:20:02 .
AO-85 16 Dec 07:20:35 07:24:01 19° 249° (WSW) 07:27:35 145.980
XW-2F 16 Dec 07:21:13 07:22:42 12° 297° (WNW) 07:24:09 145.980 - 146.000
FO-29 16 Dec 07:22:33 07:30:22 89° 267° (W) 07:38:14 435.910
TIGRISAT 16 Dec 07:24:38 07:26:14 12° 61° (ENE) 07:27:50 435.000
UNISAT 6 16 Dec 07:27:39 07:29:55 14° 63° (ENE) 07:32:10 437.425
AO-73 16 Dec 07:29:50 07:33:50 34° 97° (E) 07:37:54 145.935
CUTE-I 16 Dec 08:01:35 08:04:07 14° 303° (WNW) 08:06:38 437.470
HO-68 16 Dec 08:08:51 08:15:22 39° 297° (WNW) 08:21:51 435.675
UWE-3 16 Dec 08:12:00 08:16:02 39° 289° (WNW) 08:20:09 435.000/436.395/437.385
CUBEBUG 2 16 Dec 08:16:38 08:19:52 21° 293° (WNW) 08:23:09 437.445
NO-84 16 Dec 08:20:10 08:21:48 13° 349° (N) 08:23:31 435.350 FM
SEEDS 16 Dec 08:20:42 08:23:38 18° 295° (WNW) 08:26:34 437.485
XW-2A 16 Dec 08:31:47 08:34:25 21° 291° (WNW) 08:37:02 145.665 - 145.685
ZACube-1 16 Dec 08:33:01 08:37:10 44° 288° (WNW) 08:41:24 437.345
AAUSAT CUBESAT 2 16 Dec 08:33:42 08:37:15 27° 291° (WNW) 08:40:46 437.432
O/OREOS (USA 219) 16 Dec 08:38:22 08:42:35 35° 300° (WNW) 08:46:48 437.305
Oscar 11 16 Dec 08:49:37 08:53:51 50° 287° (WNW) 08:58:04 .
TIGRISAT 16 Dec 08:58:06 09:02:22 70° 259° (WSW) 09:06:36 435.000
UNISAT 6 16 Dec 09:01:56 09:06:10 57° 259° (W) 09:10:23 437.425
AO-73 16 Dec 09:06:25 09:09:54 24° 293° (WNW) 09:13:25 145.935
Max Valier Satellite 16 Dec 09:06:30 09:09:53 32° 97° (E) 09:13:16 145.860
PRISM 16 Dec 09:08:10 09:12:10 48° 72° (ENE) 09:16:12 437.425
FO-29 16 Dec 09:11:02 09:16:14 19° 273° (W) 09:21:30 435.910
DELFI C3 16 Dec 09:18:20 09:22:16 69° 101° (E) 09:26:10 145.870
EO-88 16 Dec 09:30:12 09:33:43 42° 99° (E) 09:37:12 145.990 - 145.960
AIST 2D 16 Dec 09:30:46 09:33:43 26° 70° (ENE) 09:36:42 435.315
POLYITAN 1 16 Dec 09:42:50 09:45:10 15° 63° (ENE) 09:47:32 437.675
LO-87 16 Dec 09:57:29 09:57:57 10° 90° (E) 09:58:24 145.935 - 145.965
NO-84 16 Dec 09:58:33 10:00:17 13° 11° (N) 10:02:06 435.350 FM
nSIGHT-1 16 Dec 10:00:49 10:03:40 29° 137° (SE) 10:06:31 .
QB50P2 16 Dec 10:07:11 10:10:49 29° 69° (ENE) 10:14:27 145.880/145.840
DUCHIFAT 1 16 Dec 10:09:50 10:13:01 22° 66° (ENE) 10:16:12 145.980
NANOSAT C BR1 16 Dec 10:36:22 10:40:22 47° 72° (ENE) 10:44:23 145.865
Max Valier Satellite 16 Dec 10:40:53 10:43:28 18° 293° (WNW) 10:46:02 145.860
BUGSAT 1 16 Dec 10:44:48 10:46:28 12° 62° (ENE) 10:48:08 437.445
PRISM 16 Dec 10:45:21 10:47:42 15° 268° (W) 10:50:03 437.425
ISS 16 Dec 10:48:57 10:52:12 66° 143° (SE) 10:55:28 437.550
EO-79 16 Dec 10:52:45 10:56:56 84° 77° (ENE) 11:01:09 145.935-145.965
DELFI C3 16 Dec 10:55:38 10:56:25 10° 298° (WNW) 10:57:12 145.870
AIST 2D 16 Dec 11:04:18 11:06:52 19° 266° (W) 11:09:27 435.315
EO-88 16 Dec 11:05:02 11:06:59 14° 295° (WNW) 11:08:54 145.990 - 145.960
ESTCUBE 1 16 Dec 11:12:46 11:17:19 65° 102° (ESE) 11:21:48 437.505/2401.250
POLYITAN 1 16 Dec 11:16:26 11:20:31 53° 260° (W) 11:24:38 437.675
Oscar 19 16 Dec 11:27:32 11:31:44 26° 64° (ENE) 11:35:57 437.125/150
LO-87 16 Dec 11:28:11 11:31:36 49° 286° (WNW) 11:35:03 145.935 - 145.965
SPROUT 16 Dec 11:28:38 11:32:00 23° 94° (E) 11:35:21 437.525
YUBILEINY 16 Dec 11:29:15 11:33:24 14° 55° (NE) 11:37:30 435.215
NO-84 16 Dec 11:35:03 11:38:24 33° 31° (NNE) 11:41:58 435.350 FM
AO-91 16 Dec 11:36:38 11:40:36 27° 69° (ENE) 11:44:14 145.960
nSIGHT-1 16 Dec 11:36:45 11:39:48 39° 335° (NNW) 11:42:52 .
QB50P2 16 Dec 11:43:07 11:46:34 24° 265° (W) 11:50:02 145.880/145.840
DUCHIFAT 1 16 Dec 11:44:42 11:48:28 33° 263° (W) 11:52:16 145.980
RS-15 16 Dec 11:53:52 12:00:44 17° 96° (E) 12:07:34 29.354- 29.394
NANOSAT C BR1 16 Dec 12:13:55 12:16:19 15° 268° (W) 12:18:45 145.865
BUGSAT 1 16 Dec 12:17:20 12:21:20 60° 259° (W) 12:25:18 437.445
Gurwin Techsat 1B 16 Dec 12:23:19 12:28:32 60° 72° (ENE) 12:33:47 435.225
ISS 16 Dec 12:26:03 12:28:55 26° 342° (NNW) 12:31:46 437.550
VELOX 1 16 Dec 12:37:55 12:42:21 76° 103° (ESE) 12:46:43 145.980
AO-7 16 Dec 12:44:08 12:50:55 29° 54° (NE) 12:57:44 .
ESTCUBE 1 16 Dec 12:51:07 12:53:34 14° 298° (WNW) 12:55:59 437.505/2401.250
SPROUT 16 Dec 13:04:08 13:07:55 32° 291° (WNW) 13:11:41 437.525
Oscar 19 16 Dec 13:05:59 13:10:49 41° 262° (W) 13:15:42 437.125/150
M-CUBED/EXP-1 PRIME 16 Dec 13:06:17 13:09:29 20° 58° (ENE) 13:12:46 437.505
UKube-1 16 Dec 13:08:20 13:11:35 21° 94° (E) 13:14:49 .
NO-84 16 Dec 13:12:09 13:15:43 40° 227° (SW) 13:19:31 435.350 FM
AO-91 16 Dec 13:12:36 13:16:56 32° 262° (W) 13:20:55 145.960
nSIGHT-1 16 Dec 13:14:19 13:16:37 18° 354° (N) 13:18:57 .
YUBILEINY 16 Dec 13:23:27 13:32:15 65° 78° (ENE) 13:40:55 435.215
DX 1 16 Dec 13:27:30 13:31:47 54° 101° (E) 13:36:01 434.975-435.025
50 SAT 16 Dec 13:33:41 13:36:50 75° 100° (E) 13:39:59 437.505
BEESAT 16 Dec 13:56:16 13:56:53 10° 88° (E) 13:57:31 436.000
RS-15 16 Dec 13:58:45 14:10:56 71° 117° (ESE) 14:23:03 29.354- 29.394
ISS 16 Dec 14:03:49 14:06:10 18° 2° (N) 14:08:32 437.550
Gurwin Techsat 1B 16 Dec 14:05:19 14:08:53 18° 269° (W) 14:12:27 435.225
VELOX 1 16 Dec 14:16:29 14:18:09 12° 300° (WNW) 14:19:49 145.980
ITAMSAT 1 16 Dec 14:21:58 14:27:05 62° 72° (ENE) 14:32:14 435.822/435.867
ITUPSAT 1 16 Dec 14:23:26 14:26:58 20° 93° (E) 14:30:30 437.325
AO-7 16 Dec 14:34:43 14:42:59 72° 254° (WSW) 14:51:21 .
M-CUBED/EXP-1 PRIME 16 Dec 14:39:10 14:43:25 51° 256° (WSW) 14:47:54 437.505
DOVE 4 16 Dec 14:41:12 14:44:59 21° 64° (ENE) 14:48:40 437.250
SO-50 16 Dec 14:42:07 14:46:32 71° 122° (ESE) 14:51:03 436.795
UKube-1 16 Dec 14:43:44 14:47:42 36° 291° (WNW) 14:51:38 .
CUBESAT XI-V 16 Dec 14:45:12 14:47:22 13° 89° (E) 14:49:32 437.345
nSIGHT-1 16 Dec 14:51:00 14:53:38 22° 15° (NNE) 14:56:16 .
MOZHAYETS 4 16 Dec 14:51:41 14:56:16 61° 101° (E) 15:00:51
DX 1 16 Dec 15:04:55 15:07:31 16° 298° (WNW) 15:10:06 434.975-435.025
YUBILEINY 16 Dec 15:21:14 15:28:20 28° 279° (W) 15:35:23 435.215
BEESAT 16 Dec 15:30:28 15:35:16 85° 284° (WNW) 15:40:02 436.000
ISS 16 Dec 15:40:20 15:43:22 33° 22° (NNE) 15:46:23 437.550
LilacSat-2 16 Dec 15:50:43 15:52:46 14° 64° (ENE) 15:54:49 437.200
NUDT-PHONESAT 16 Dec 15:58:59 15:59:24 10° 62° (ENE) 15:59:49 437.300
ITUPSAT 1 16 Dec 16:00:27 16:04:59 45° 290° (WNW) 16:09:31 437.325
XW-2D 16 Dec 16:01:33 16:04:06 17° 66° (ENE) 16:06:41 145.860 - 145.880
ITAMSAT 1 16 Dec 16:03:36 16:06:58 17° 269° (W) 16:10:19 435.822/435.867
CUTE-I 16 Dec 16:03:49 16:07:56 23° 63° (ENE) 16:12:04 437.470
KAITUO 1B 16 Dec 16:05:01 16:06:52 13° 64° (ENE) 16:08:43 145.475/437.950
RS-15 16 Dec 16:12:45 16:24:22 44° 322° (NW) 16:35:47 29.354- 29.394
XW-2B 16 Dec 16:16:52 16:19:58 24° 69° (ENE) 16:23:05 145.730 - 145.750
DOVE 4 16 Dec 16:17:06 16:22:15 55° 260° (W) 16:27:16 437.250
CUBESAT XI-V 16 Dec 16:20:30 16:25:12 68° 286° (WNW) 16:29:52 437.345
SO-50 16 Dec 16:24:21 16:27:29 18° 321° (NW) 16:30:40 436.795
KKS-1 16 Dec 16:26:39 16:30:22 26° 96° (E) 16:34:04 437.445
XW-2F 16 Dec 16:26:46 16:30:05 30° 70° (ENE) 16:33:25 145.980 - 146.000
nSIGHT-1 16 Dec 16:26:57 16:30:11 89° 3° (N) 16:33:24 .
MOZHAYETS 4 16 Dec 16:30:11 16:32:56 16° 298° (WNW) 16:35:40
CUTE 1.7 + AOD 2 16 Dec 16:31:11 16:32:19 11° 61° (ENE) 16:33:28 437.475
AO-7 16 Dec 16:33:30 16:37:10 13° 273° (W) 16:40:51 .
XW-2C 16 Dec 16:43:42 16:47:23 51° 74° (ENE) 16:51:07 145.795 - 145.815
HO-68 16 Dec 16:50:40 16:57:04 36° 62° (ENE) 17:03:28 435.675
STARS 16 Dec 17:03:32 17:07:09 25° 95° (E) 17:10:46 437.465
O/OREOS (USA 219) 16 Dec 17:07:50 17:12:16 55° 63° (ENE) 17:16:38 437.305
BEESAT 16 Dec 17:11:01 17:12:15 11° 302° (WNW) 17:13:30 436.000
ISS 16 Dec 17:16:47 17:19:54 41° 220° (SW) 17:23:00 437.550
LilacSat-2 16 Dec 17:22:57 17:26:37 46° 261° (W) 17:30:21 437.200
NUDT-PHONESAT 16 Dec 17:29:02 17:32:41 63° 259° (W) 17:36:23 437.300
XW-2D 16 Dec 17:34:31 17:38:00 35° 263° (W) 17:41:31 145.860 - 145.880
UWE-3 16 Dec 17:34:45 17:37:27 17° 65° (ENE) 17:40:10 435.000/436.395/437.385
SEEDS 16 Dec 17:36:29 17:40:14 32° 70° (ENE) 17:44:03 437.485
KAITUO 1B 16 Dec 17:36:48 17:40:25 47° 261° (W) 17:44:04 145.475/437.950
CUBEBUG 2 16 Dec 17:38:32 17:42:17 32° 70° (ENE) 17:45:59 437.445
CUTE-I 16 Dec 17:42:24 17:47:37 51° 260° (W) 17:52:52 437.470
PCSat 16 Dec 17:44:40 17:49:58 59° 115° (ESE) 17:55:18 145.827
AAUSAT CUBESAT 2 16 Dec 17:49:28 17:52:30 20° 66° (ENE) 17:55:32 437.432
XW-2B 16 Dec 17:50:57 17:54:03 24° 265° (W) 17:57:11 145.730 - 145.750
ZACube-1 16 Dec 17:55:09 17:57:32 15° 64° (ENE) 17:59:56 437.345
BEESAT 3 16 Dec 17:59:55 18:00:24 10° 108° (ESE) 18:00:54 437.485
XW-2F 16 Dec 18:01:26 18:04:12 19° 267° (W) 18:07:01 145.980 - 146.000
KKS-1 16 Dec 18:03:01 18:06:54 31° 292° (WNW) 18:10:46 437.445
nSIGHT-1 16 Dec 18:04:53 18:05:55 11° 230° (SW) 18:06:57 .
